Location: Alladorf
(49.9620°N, 11.3790°E)
Time: 20:23:16
(UTC+00:00)

Cosmos 405 Rocket - Pass Details

Date: 29 November 2020
Orbit: 489 x 554 km, 81.3° (Epoch: 25 January)

Event Time Altitude Azimuth Distance (km) Brightness Sun altitude
Rises 05:37:37 0° 209° (SSW) 2,560 6.1 -11.0°
Reaches altitude 10° 05:39:48 10° 218° (SW) 1,688 5.1 -10.7°
Maximum altitude 05:43:17 38° 288° (WNW) 775 3.1 -10.2°
Drops below altitude 10° 05:46:50 10° 358° (N) 1,727 5.1 -9.6°
Sets 05:49:06 0° 6° (N) 2,628 6.1 -9.3°
